CHINASAT 3B

Last updated on Tue Sep 22 2026 00:03:16 GMT+0000 (Coordinated Universal Time)

1 64062U 25106A 26264.34238362 -.00000049 00000+0 00000+0 0 9995 2 64062 0.0108 271.6171 0002378 281.2687 97.9167 1.00272213 5022
UTC large
Height (km)
Speed (km/s)
/
Latitude / Longitude
Inclination (degrees)
Orbital Period (minutes)
Azimuth
Elevation
Range (km)
Doppler Factor

Next 0 passes for location: London (51.5072 / 0.1276)

No passes found over London.
CHINASAT 3B